Miscellaneous Local Product
Issued by NWS North Platte, NE

Home | Current Version | Previous Version | Text Only | Print | Product List | Glossary On
Versions: 1 2 3 4 5 6 7 8 9 10 11 12 13 14 15 16 17 18 19 20 21 22 23 24 25 26 27 28 29 30 31 32 33 34 35 36 37 38 39 40 41 42 43 44 45 46 47 48 49 50
470
AXUS43 KLBF 181510
MISLBF


WESTERN AND NORTH CENTRAL NEBRASKA HOURLY WEATHER ROUNDUP
NATIONAL WEATHER SERVICE NORTH PLATTE NE
900 AM CST SAT NOV 18 2017

NOTE: "FAIR" INDICATES FEW OR NO CLOUDS BELOW 12,000 FEET WITH NO
SIGNIFICANT WEATHER AND/OR OBSTRUCTIONS TO VISIBILITY.

NOTE: STATIONS NOT REPORTING VARIABLES SUCH AS SKY/WEATHER OR
PRESSURE ARE PROVIDED BY RAWS AND APRS NETWORKS AND ARE NOT UNDER
NATIONAL WEATHER SERVICE QUALITY CONTROL.

...OBSERVATIONS IN AND NEAR THE EASTERN PANHANDLE OF NEBRASKA...

CITY           SKY/WX    TMP DP  RH WIND       PRES   REMARKS
PINE RIDGE     SUNNY     29  24  82 VRB3      30.15R
GORDON         FAIR      30  24  77 W13       30.13R WCI  20
CHADRON        SUNNY     29  21  72 W5        30.19R WCI  24
ALLIANCE       SUNNY     29  20  69 NW15      30.17R WCI  18
SIDNEY         SUNNY     30  21  69 NW15      30.20R WCI  19
CRESCENT LAKE    N/A     50  20  31 NW15        N/A
$$

...OBSERVATIONS IN NORTHERN NEBRASKA AND FAR SOUTHERN SOUTH DAKOTA...

CITY           SKY/WX    TMP DP  RH WIND       PRES   REMARKS
WINNER         FAIR      36  29  75 NW14      30.07R WCI  27
VALENTINE      SUNNY     36  27  69 NW13      30.09R WCI  27
THEDFORD       SUNNY     36  30  78 NW14      30.11R WCI  27
AINSWORTH      SUNNY     35  30  82 NW15G24   30.08R WCI  25
O`NEILL        SUNNY     37  32  81 NW21G32   30.02R WCI  27
ORD            SUNNY     39  33  79 NW21      30.02R WCI  29
BROKEN BOW     SUNNY     38  30  73 NW25G33   30.06R WCI  27
VALENTINE NWR    N/A     33  28  81 NW13G20     N/A  WCI  24
HALSEY           N/A     34  29  82 NW9G17      N/A  WCI  27
BUTTE            N/A     35  29  80 NW17G26     N/A  WCI  25
CHAMBERS         N/A     39  30  71 N9          N/A  WCI  33
EWING            N/A     39  35  85 NW14G25     N/A  WCI  31
$$

...OBSERVATIONS IN SOUTHWEST NEBRASKA AND FAR NORTHEAST COLORADO...

CITY           SKY/WX    TMP DP  RH WIND       PRES   REMARKS
HOLYOKE        FAIR      37  21  52 NW17G30   30.19R WCI  28
IMPERIAL       SUNNY     35  24  64 NW21G29   30.17R WCI  24
OGALLALA       SUNNY     35  26  68 NW17G23   30.17R WCI  25
NORTH PLATTE   SUNNY     37  30  75 NW15      30.13R WCI  28
MCCOOK         SUNNY     39  32  76 NW21G31   30.13R WCI  29
LEXINGTON      SUNNY     39  32  75 NW21G26   30.09R WCI  29
STAPLETON        N/A     35  29  80 NW6         N/A  WCI  30
GOTHENBURG       N/A     38  29  70 NW12        N/A  WCI  30
CALLAWAY         N/A     36  31  82 NW21        N/A  WCI  25
$$

...OBSERVATIONS IN CENTRAL LINCOLN COUNTY AREA...

CITY           SKY/WX    TMP DP  RH WIND       PRES   REMARKS
N.P. AIRPORT   SUNNY     37  30  75 NW15      30.13R WCI  28
N.P. DOWNTOWN    N/A     37  31  80 W7          N/A  WCI  31
N.P. SOUTHEAST   N/A     37  30  75 NW5G12      N/A  WCI  33
N.P. HILLCREST   N/A     37  30  77 NW16G23     N/A  WCI  27
$$

...SOME OBSERVATIONS FROM AROUND THE REGION...

CITY           SKY/WX    TMP DP  RH WIND       PRES   REMARKS
DENVER         MOSUNNY   33  15  47 NE8       30.22R WCI  26
LIMON          SUNNY     26  20  77 NW13      30.23R WCI  15
ASPEN          MOSUNNY   17  12  80 CALM      30.37R
LARAMIE        CLOUDY    16   7  67 W13G18    30.18R WCI   2
CASPER         CLOUDY    21  13  71 SW22      30.20R WCI   5
CHEYENNE       SUNNY     23  11  60 SW5       30.19R WCI  17
SCOTTSBLUFF    SUNNY     29  20  69 NW14      30.21R WCI  18
GRAND ISLAND   CLOUDY    40  37  89 NW20G28   30.00R WCI  30
OMAHA          CLOUDY    38  29  70 NW21G29   29.89R WCI  28
SIOUX FALLS    MOSUNNY   34  22  61 NW12      29.94R WCI  25
PIERRE         MOSUNNY   29  25  85 NW16      30.10R WCI  17
RAPID CITY     CLEAR     36  18  48 NW14      30.12R WCI  27
BISMARCK       CLEAR     22  17  81 W9        30.10R WCI  12
KANSAS CITY    LGT RAIN  42  41  96 N17G31    29.75R
HILL CITY      MOSUNNY   42  37  82 NW22G31   30.11R
WICHITA        CLOUDY    44  39  82 N30G39    29.95R
DODGE CITY     LGT RAIN  41  37  86 N17G31    30.10R
OKLAHOMA CITY  CLOUDY    52  39  61 N28G39    29.93R
DALLAS         PTSUNNY   73  46  38 N30G37    29.81R SQUALL
AMARILLO       MOSUNNY   45  28  51 N28G39    30.18R
$$




USA.gov is the U.S. government's official web portal to all federal, state and local government web resources and services.